Voltar ao catálogo

SL-16 DEB

AtivoLEO
NORAD 20626·DEBRIS·🇷🇺 Russia

Lançado May 22, 1990 de Baikonur Cosmodrome

Loading…

Próximas Passagens (próximas 24 horas)

TLE

AtualizadoSource: Space-Track

Época: Sep 14, 2026, 09:18 UTC

1 20626U 90046C   26257.38771492 -.00000027  00000-0  14273-4 0  9999
2 20626  71.0172  31.6840 0206031  16.8124  14.2778 13.72982582818342

Acompanhe SL-16 DEB em tempo real com AllMySat

Download on the App Store